Regional Weather Roundup
Issued by NWS Mt. Holly, NJ

Current Version | Previous Version | Text Only | Print | Product List | Glossary On
Versions: 1 2 3 4 5 6 7 8 9 10 11 12 13 14 15 16 17 18 19 20 21 22 23 24 25 26 27 28 29 30 31 32 33 34 35 36 37 38 39 40 41 42 43 44 45 46 47 48 49 50
000
ASUS41 KPHI 211912
RWRPHI

REGIONAL WEATHER ROUNDUP
NATIONAL WEATHER SERVICE MOUNT HOLLY NJ
300 PM EDT WED OCT 21 2020

NOTE:  "FAIR" INDICATES FEW OR NO CLOUDS BELOW 12,000 FEET WITH NO
SIGNIFICANT WEATHER AND/OR OBSTRUCTIONS TO VISIBILITY.

 * = STATION DOES NOT REPORT PRECIPITATION (E.G. RAIN, SNOW, ETC.)
        OR FOG.

NJZ015>026-212000-
SOUTHERN NEW JERSEY

CITY           SKY/WX    TMP DP  RH WIND       PRES   REMARKS
POMONA         SUNNY     73  66  78 S9        30.22F
WILDWOOD*      SUNNY     74  68  81 S12       30.23F
MILLVILLE      SUNNY     75  66  73 VRB6      30.21F
WRIGHTSTOWN    MOSUNNY   80  65  60 S14       30.21F
MOUNT HOLLY    PTSUNNY   78  67  68 VRB3      30.20F
TRENTON        CLOUDY    70  66  87 CALM      30.21F

$$
NJZ001>014-212000-
NORTHERN NEW JERSEY

CITY           SKY/WX    TMP DP  RH WIND       PRES   REMARKS
SUSSEX         CLOUDY    68  62  81 SW3       30.21F
ANDOVER*         N/A     66  62  87 S3        30.22F
MORRISTOWN     CLOUDY    70  68  94 S3        30.22F
NEWARK         PTSUNNY   68  62  81 E5        30.22F
TETERBORO      PTSUNNY   69  63  81 SW8       30.20F
CALDWELL       CLOUDY    69  63  81 S7        30.21F
SOMERVILLE     CLOUDY    66  64  93 CALM      30.20F
ALLAIRE*       MOSUNNY   73  67  81 S6        30.23F
TOMS RIVER*    MOSUNNY   77  67  71 S7        30.22F

$$
PAZ043-044-047-054-055-060>062-066>071-212000-
EASTERN PENNSYLVANIA

CITY           SKY/WX    TMP DP  RH WIND       PRES   REMARKS
PHILADELPHIA   MOSUNNY   74  66  76 W9        30.21F
NORTH PHILA    MOSUNNY   77  67  71 SW8       30.22F
BLUE BELL*     CLOUDY    69  65  89 S6        30.22F
DOYLESTOWN     CLOUDY    70  64  81 SW7       30.21F
QUAKERTOWN*    CLOUDY    64  64 100 CALM      30.22F FOG
POTTSTOWN      CLOUDY    68  64  87 SW6       30.22F
LANCASTER      CLOUDY    72  63  73 S9        30.20F
COATESVILLE    CLOUDY    66  66 100 VRB6      30.23F
READING        CLOUDY    69  64  84 CALM      30.20S
ALLENTOWN      CLOUDY    67  62  84 SW7       30.21F
QN CITY/ALNTWN CLOUDY    66  63  88 S7        30.23S
MOUNT POCONO   CLOUDY    61  58  90 S8        30.23F
HAZLETON       PTSUNNY   66  59  77 S8        30.24S
LEHIGHTON      CLOUDY    70  63  78 S8        30.21F
WILKES BARRE   SUNNY     74  59  59 S12G18    30.17F

$$
DEZALL-MDZ008-012-015-019-020-212000-
DELAWARE AND EASTERN MARYLAND

CITY           SKY/WX    TMP DP  RH WIND       PRES   REMARKS
WILMINGTON       N/A     73  67  81 S5        30.21F
DOVER          MOSUNNY   73  69  86 E9        30.20F HAZE
CHESWOLD       PTCLDY    79  68  69 SW8G14    30.20F
GEORGETOWN     MOSUNNY   82  67  60 SW12      30.21F
EASTON         MOSUNNY   81  70  69 S10       30.24F
ABERDEEN       CLOUDY    68  67  94 SW8       30.20F FOG
PATUXENT       MOSUNNY   71  66  84 SE8       30.21
OCEAN CITY     MOSUNNY   74  67  78 VRB6      30.24F
WALLOPS ISLAND PTSUNNY   75  68  78 S9        30.24F
SALISBURY      MOSUNNY   79  66  64 SW7       30.22F

$$
PAZ001-021-NYZ056-072-MDZ011-DCZ001-212000-
OTHER NEARBY LOCATIONS

CITY           SKY/WX    TMP DP  RH WIND       PRES   REMARKS
HARRISBURG     MOSUNNY   76  61  59 S7        30.17F
STATE COLLEGE  MOSUNNY   77  59  53 SW9       30.15F
WILLIAMSPORT   MOSUNNY   77  58  51 SE14G21   30.13F
BINGHAMTON     MOSUNNY   72  57  59 SW12G20   30.13F
NEW YORK CITY  MOSUNNY   68  63  84 VRB3      30.24F
BALTIMORE      PTSUNNY   76  66  71 SE5       30.19F
WASHINGTON DC  PTSUNNY   75  67  76 S8        30.21F

$$



USA.gov is the U.S. government's official web portal to all federal, state and local government web resources and services.